Powrót do katalogu

STARLINK-36440

AktywnyŁącznośćVLEO
NORAD 67447·PAYLOAD·🇺🇸 United States

Wystrzelony Jan 14, 2026 z Cape Canaveral Space Force Station

Loading…

Następne Przeloty (najbliższe 24 godziny)

TLE

ŚwieżeSource: CelesTrak SupGP

Epoka: Sep 14, 2026, 21:41 UTC

1 67447C 26008C   26257.90395833  .00026250  00000+0  95063-3 0  2573
2 67447  42.9996 216.2865 0001334 265.6345 112.0092 15.27569953    19

Śledź STARLINK-36440 w czasie rzeczywistym z AllMySat

Download on the App Store